Location: Solstice Park, West Seattle
(47.5363°N, 122.3905°W)
Time: 08:20:12
(UTC-07:00)

ISS - Pass Details

Date: 16 May 2021
Orbit: 417 x 422 km, 51.6° (Epoch: 18 June)

Event Time Altitude Azimuth Distance (km) Brightness Sun altitude
Rises 23:08:34 0° 260° (W) 2,361 0.3 -18.1°
Reaches altitude 10° 23:10:41 10° 265° (W) 1,500 -0.7 -18.2°
Maximum altitude 23:14:00 54° 344° (NNW) 515 -3.0 -18.5°
Drops below altitude 10° 23:17:20 10° 63° (ENE) 1,507 -1.0 -18.8°
Sets 23:19:28 0° 68° (ENE) 2,374 0.0 -18.9°
